Regional Weather Roundup
Issued by NWS

Home | Current Version | Previous Version | Text Only | Print | Product List | Glossary Off
Versions: 1 2 3 4 5 6 7 8 9 10 11 12 13 14 15 16 17 18 19 20 21 22 23 24 25 26 27 28 29 30 31 32 33 34 35 36 37 38 39 40 41 42 43 44 45 46 47 48 49 50

000
ASUS45 KPSR 250810
RWRAZ

ARIZONA REGIONAL HOURLY WEATHER ROUNDUP
NATIONAL WEATHER SERVICE PHOENIX AZ
100 AM MST SUN JAN 25 2015

NOTE: FAIR INDICATES FEW OR NO CLOUDS BELOW 12,000 FEET WITH NO
SIGNIFICANT WEATHER AND/OR OBSTRUCTIONS TO VISIBILITY.

AZZ001>003-036-250900-
NORTHWEST ARIZONA

CITY           SKY/WX    TMP DP  RH WIND       PRES   REMARKS
BULLHEAD CITY  CLEAR     64  25  22 N24       30.16S
KINGMAN        CLEAR     47  19  33 E6        30.25R
$$

AZZ004>008-015-016-018-250900-
NORTH CENTRAL ARIZONA

CITY           SKY/WX    TMP DP  RH WIND       PRES   REMARKS
GRAND CANYON   CLEAR     24  15  68 NE5       30.32S WCI  18
PRESCOTT       CLEAR     31  15  52 S3        30.25S
FLAGSTAFF      CLEAR     39   8  27 E12       30.28S WCI  32
PAYSON         CLEAR     43  16  33 NE9       30.25F
$$

AZZ009>014-017-250900-
NORTHEAST ARIZONA

CITY           SKY/WX    TMP DP  RH WIND       PRES   REMARKS
WINSLOW        CLEAR     26  20  77 CALM      30.29S
SAINT JOHNS    CLEAR     28  19  69 S7        30.27F WCI  21
WINDOW ROCK    CLEAR     28  18  66 CALM      30.29S
SHOW LOW       CLEAR     23  16  74 CALM      30.31S
$$

AZZ023-250900-
GREATER PHOENIX AREA

CITY           SKY/WX    TMP DP  RH WIND       PRES   REMARKS
PHOENIX        CLEAR     57  21  24 CALM      30.08S
BUCKEYE          N/A     46  18  31 N6        30.09F
LUKE AFB       NOT AVBL
DEER VALLEY    CLEAR     55  16  21 NE7       30.09S
SCOTTSDALE     CLEAR     52  21  29 CALM      30.10S
MESA-GATEWAY   CLEAR     45  21  39 CALM      30.11S
$$

AZZ027-028-250900-
SOUTHWEST MARICOPA COUNTY AND PINAL COUNTY

CITY           SKY/WX    TMP DP  RH WIND       PRES   REMARKS
CASA GRANDE    CLEAR     55  12  18 NE7       30.10S
GILA BEND      FAIR      46  13  26 E3        30.07S
$$

AZZ503-504-507>509-250900-
SOUTHEAST ARIZONA

CITY           SKY/WX    TMP DP  RH WIND       PRES   REMARKS
TUCSON         MOCLDY    55   9  16 SE13      30.12F
DAVIS-MONTHAN  MOCLDY    53  11  18 SE14      30.10F
NOGALES        CLOUDY    47  15  27 NE8       30.14F
SIERRA VISTA   CLOUDY    41  16  36 S3        30.19F
DOUGLAS        CLOUDY    40  15  36 NE8       30.19F WCI  34
SAFFORD        CLEAR     43  15  32 SE10      30.20S
$$

AZZ020-021-025-026-031-250900-
SOUTHWEST ARIZONA

CITY           SKY/WX    TMP DP  RH WIND       PRES   REMARKS
YUMA           CLEAR     60  23  24 N9        30.06F
$$

CAZ031-033-041-043-047-048-061-250900-
SOUTHERN CALIFORNIA

CITY           SKY/WX    TMP DP  RH WIND       PRES   REMARKS
DOWNTOWN L.A.  CLEAR     56  37  49 CALM      30.04S
L.A. AIRPORT   CLEAR     64  31  28 CALM      30.04F
SAN DIEGO      CLEAR     59  40  49 CALM      30.03F
BURBANK        CLEAR     59  25  27 E3        30.04F
ONTARIO        CLEAR     73  13  10 E18G31    30.06F
RIVERSIDE      CLEAR     56  26  31 CALM      30.10F
PALM SPRINGS   CLEAR     66  20  17 W9        30.12F
EL CENTRO NAS  CLEAR     46  21  37 W8        30.08F
IMPERIAL       CLEAR     48  23  37 W7        30.07F
BLYTHE         CLEAR     58  20  22 CALM      30.10F
NEEDLES        CLEAR     63  20  19 N16       30.15S
$$

NVZ020-UTZ003-250900-
SOUTHERN NEVADA-UTAH

CITY           SKY/WX    TMP DP  RH WIND       PRES   REMARKS
LAS VEGAS      CLEAR     52  22  30 S8        30.22S
SALT LAKE CITY CLOUDY    34  29  82 SE6       30.46F WCI  29
$$

NMZ009-TXZ055-250900-
NEW MEXICO-WEST TEXAS

CITY           SKY/WX    TMP DP  RH WIND       PRES   REMARKS
ALBUQUERQUE    PTCLDY    36  18  48 NE5       30.27R WCI  32
EL PASO        MOCLDY    37  28  70 NW3       30.20F
$$


........................KEY........................
SKY/WX - SKY CONDITION/WEATHER
TMP    - TEMPERATURE IN FAHRENHEIT
DP     - DEW POINT IN FAHRENHEIT
RH     - RELATIVE HUMIDITY IN PERCENT
WIND   - DIRECTION AND SPEED IN MILES PER HOUR (MPH)
VRB    - VARIABLE WIND DIRECTION
PRES   - MEAN SEA LEVEL PRESSURE IN INCHES OF MERCURY
         F - FALLING PRESSURE   R - RISING PRESSURE
         S - STEADY PRESSURE
VSB    - VISIBILITY IN MILES
HX     - HEAT INDEX IN FAHRENHEIT
WCI    - WIND CHILL INDEX IN FAHRENHEIT
TC     - TEMPERATURE IN CELSIUS WHICH IS ALSO KNOWN AS
         TEMPERATURE IN CENTIGRADE
AFB    - AIR FORCE BASE
         LUKE AFB IS LUKE AIR FORCE BASE
         DAVIS-MONTHAN IS DAVIS-MONTHAN AIR FORCE BASE
NAS    - NAVAL AIR STATION
         EL CENTRO NAS IS EL CENTRO NAVAL AIR STATION
N/A    - NOT AVAILABLE



USA.gov is the U.S. government's official web portal to all federal, state and local government web resources and services.